User: anonymous   Login
Location: Unspecified
(33.2407°S, 0.0000°E)
Time: 07:27:19
(UTC+00:00)
Language:

RS-15 - Orbit

View from above orbital plane
View from above orbital plane
View from above satellite
View from above satellite

Ground track
Ground track

The orbit data is extracted from the following two-line orbital elements,

1 23439U 94085A   19202.86371117 -.00000036 +00000-0 +18042-3 0  9993
2 23439 064.8172 062.4821 0146174 106.7442 254.9578 11.27568441011631
Epoch (UTC): 21 July 2019 20:43:44
Eccentricity: 0.0146174
inclination: 64.8172°
perigee height: 1899 km
apogee height: 2145 km
right ascension of ascending node: 62.4821°
argument of perigee: 106.7442°
revolutions per day: 11.27568441
mean anomaly at epoch: 254.9578°
orbit number at epoch: 1163

The dashed part of the orbit path shows where the satellite is in the earth's shadow,  

DLR